Date,TemperatureHighF,TemperatureAvgF,TemperatureLowF,DewpointHighF,DewpointAvgF,DewpointLowF,HumidityHigh,HumidityAvg,HumidityLow,PressureMaxIn,PressureMinIn,WindSpeedMaxMPH,WindSpeedAvgMPH,GustSpeedMaxMPH,PrecipitationSumIn
2013-11-1,66,62,59,63,60,57,96,93,88,29.89,29.57,36,8,36,0.01
2013-11-2,61,57,55,58,54,49,96,88,71,29.74,29.61,16,2,16,0.01
2013-11-3,55,45,36,49,40,22,94,81,54,30.39,29.73,22,6,22,0.00
2013-11-4,43,38,33,32,27,24,79,67,52,30.73,30.39,21,6,21,0.00
2013-11-5,50,42,35,40,34,28,84,72,57,30.73,30.55,10,1,10,0.00
2013-11-6,57,51,42,54,46,38,96,84,70,30.56,30.11,22,2,22,0.00
2013-11-7,60,55,44,60,54,37,99,95,78,30.11,29.69,30,8,30,0.31
2013-11-8,50,43,38,37,32,25,82,66,49,30.14,29.84,26,6,26,0.00
2013-11-9,38,5,0,29,4,0,71,10,71,30.25,30.08,5,1,5,0.00
2013-11-10,0,0,0,0,0,0,0,0,100,30.08,29.75,0,0,0,0.00
2013-11-11,0,0,0,0,0,0,0,0,100,30.14,29.90,0,0,0,0.00
2013-11-12,0,0,0,0,0,0,0,0,100,30.19,29.91,0,0,0,0.00
2013-11-13,0,0,0,0,0,0,0,0,100,30.30,30.18,0,0,0,0.00
2013-11-14,0,0,0,0,0,0,0,0,100,30.24,30.09,0,0,0,0.00
2013-11-15,0,0,0,0,0,0,0,0,100,30.25,30.17,0,0,0,0.00
2013-11-16,0,0,0,0,0,0,0,0,100,30.35,30.23,0,0,0,0.00
2013-11-17,0,0,0,0,0,0,0,0,100,30.34,29.89,0,0,0,0.00
2013-11-18,0,0,0,0,0,0,0,0,100,29.89,29.60,0,0,0,0.00
2013-11-19,0,0,0,0,0,0,0,0,100,30.30,29.69,0,0,0,0.00
2013-11-20,0,0,0,0,0,0,0,0,100,30.63,30.30,0,0,0,0.00
2013-11-21,0,0,0,0,0,0,0,0,100,30.66,30.42,0,0,0,0.00
2013-11-22,52,44,0,52,42,-3,98,84,85,30.42,29.84,20,2,20,0.24
2013-11-23,50,44,34,49,31,20,96,61,35,29.90,29.80,26,5,26,0.00
2013-11-24,33,27,24,20,10,-2,62,48,28,30.21,29.81,39,10,39,0.00
2013-11-25,41,28,20,34,10,0,77,47,23,30.41,30.21,26,4,26,0.00
2013-11-26,47,42,39,46,34,26,97,73,55,30.36,30.03,31,6,31,0.19
2013-11-27,61,53,40,61,52,36,99,97,87,30.03,29.17,48,10,48,2.16
2013-11-28,40,34,28,36,22,14,86,61,43,30.47,29.51,28,6,28,0.01
2013-11-29,37,31,26,19,16,12,63,54,42,30.74,30.47,16,3,16,0.00
2013-11-30,40,31,22,32,21,12,77,66,55,30.78,30.45,16,4,16,0.00